New York, NY

10:34 AM EST on November 17, 2019 (GMT -0500)
La Guardia

Weather History for KLGA - October, 2019

Change the Weather History Date:

Monday, October 21, 2019

  Actual Average Record
Temperature  
Mean Temperature 60 °F 56 °F  
Max Temperature 68 °F 63 °F 82 °F (1947)
Min Temperature 52 °F 49 °F 33 °F (1974)
Degree Days  
Heating Degree Days 5 9  
Month to date heating degree days 99 131  
Since 1 July heating degree days 102 166  
Cooling Degree Days 0 0  
Month to date cooling degree days 29 20  
Year to date cooling degree days 1484 1210  
Growing Degree Days 10 (Base 50)    
Moisture  
Dew Point 47 °F    
Average Humidity 69    
Maximum Humidity 86    
Minimum Humidity 39    
Precipitation  
Precipitation T in 0.12 in 1.81 in (1995)
Month to date precipitation 3.13 2.60  
Year to date precipitation 39.61 36.58  
Snow  
Snow 0.00 in 0.00 in - ()
Month to date snowfall 0.0 0.0  
Since 1 July snowfall 0.0 0.0  
Snow Depth 0.00 in    
Sea Level Pressure  
Sea Level Pressure 30.04 in    
Wind  
Wind Speed 9 mph ()    
Max Wind Speed 17 mph    
Max Gust Speed 22 mph    
Visibility 10.0 miles    
Events Rain    
T = Trace of Precipitation, MM = Missing Value Source: Averaged Metar Reports

Daily Weather History Graph

Daily Weather History Graph

Search for Another Location

Airport or City:

Astronomy

Oct. 21, 2019 Rise Set
Actual Time 7:13 AM EDT 6:06 PM EDT
Civil Twilight 6:45 AM EDT 6:34 PM EDT
Nautical Twilight 6:13 AM EDT 7:06 PM EDT
Astronomical Twilight 5:41 AM EDT 7:37 PM EDT
Moon No Moon Rise 2:30 PM EDT (10/21)
Length of Visible Light 11h 49m
Length of Day
10h 53m
Waning Gibbous, 48% of the Moon is Illuminated
Oct 21
Waning Gibbous
Oct 27
New
Nov 4
First Quarter
Nov 12
Full
Nov 19
Last Quarter

Hourly Weather History & Observations

Time (EDT) Temp. Dew Point Humidity Pressure Visibility Wind Dir Wind Speed Gust Speed Precip Events Conditions
12:01 AM 54.0 °F 48.9 °F 83% 29.99 in 10.0 mi NNE 11.5 mph - N/A   Overcast
12:51 AM 53.1 °F 48.9 °F 86% 29.97 in 10.0 mi NE 13.8 mph - 0.01 in Rain Light Rain
1:47 AM 53.6 °F 48.2 °F 82% 29.98 in 10.0 mi North 10.4 mph - 0.00 in   Overcast
1:51 AM 54.0 °F 48.9 °F 83% 29.98 in 10.0 mi North 11.5 mph - 0.00 in   Overcast
2:24 AM 54.0 °F 48.0 °F 80% 29.97 in 10.0 mi NNE 16.1 mph - N/A   Overcast
2:49 AM 53.6 °F 48.2 °F 82% 29.98 in 10.0 mi North 8.1 mph - N/A   Overcast
2:51 AM 54.0 °F 48.0 °F 80% 29.98 in 10.0 mi North 11.5 mph - N/A   Overcast
3:27 AM 54.0 °F 48.0 °F 80% 29.98 in 10.0 mi North 11.5 mph - N/A   Overcast
3:51 AM 54.0 °F 48.0 °F 80% 29.98 in 10.0 mi North 10.4 mph - N/A   Overcast
4:51 AM 52.0 °F 46.9 °F 83% 29.99 in 10.0 mi NNE 10.4 mph - N/A   Partly Cloudy
5:51 AM 52.0 °F 46.0 °F 80% 30.01 in 10.0 mi North 9.2 mph - N/A   Partly Cloudy
6:51 AM 52.0 °F 46.0 °F 80% 30.03 in 10.0 mi North 9.2 mph - N/A   Partly Cloudy
7:51 AM 53.1 °F 45.0 °F 74% 30.04 in 10.0 mi North 6.9 mph - N/A   Partly Cloudy
8:51 AM 55.0 °F 45.0 °F 69% 30.06 in 10.0 mi NNE 9.2 mph - N/A   Clear
9:51 AM 59.0 °F 44.1 °F 58% 30.06 in 10.0 mi NE 15.0 mph - N/A   Clear
10:51 AM 60.1 °F 44.1 °F 55% 30.06 in 10.0 mi ENE 12.7 mph - N/A   Clear
11:51 AM 62.1 °F 45.0 °F 53% 30.06 in 10.0 mi ENE 12.7 mph - N/A   Partly Cloudy
12:51 PM 63.0 °F 46.0 °F 54% 30.06 in 10.0 mi NE 9.2 mph - N/A   Partly Cloudy
1:51 PM 64.9 °F 45.0 °F 48% 30.05 in 10.0 mi NE 8.1 mph - N/A   Partly Cloudy
3:51 PM 66.9 °F 42.1 °F 40% 30.06 in 10.0 mi NE 6.9 mph - N/A   Partly Cloudy
4:51 PM 66.9 °F 41.0 °F 39% 30.07 in 10.0 mi NE 8.1 mph - N/A   Scattered Clouds
5:51 PM 66.0 °F 43.0 °F 43% 30.08 in 10.0 mi ENE 8.1 mph - N/A   Scattered Clouds
6:51 PM 62.1 °F 50.0 °F 65% 30.09 in 10.0 mi SW 5.8 mph - N/A   Scattered Clouds
7:51 PM 61.0 °F 51.1 °F 70% 30.09 in 10.0 mi South 3.5 mph - N/A   Partly Cloudy
8:51 PM 60.1 °F 51.1 °F 72% 30.11 in 10.0 mi WSW 4.6 mph - N/A   Partly Cloudy
9:51 PM 60.1 °F 51.1 °F 72% 30.12 in 10.0 mi Calm Calm - N/A   Scattered Clouds
10:51 PM 59.0 °F 50.0 °F 72% 30.13 in 10.0 mi ENE 6.9 mph - N/A   Mostly Cloudy
11:51 PM 59.0 °F 46.9 °F 64% 30.12 in 10.0 mi East 8.1 mph - N/A   Mostly Cloudy